Edinburg, TX

5:47 AM CDT on May 28, 2018 (GMT -0500)
Edinburg

Weather History for KEBG - December, 2012

Change the Weather History Date:

Saturday, December 29, 2012

  Actual Average (KMFE) Record (KMFE)
Temperature  
Mean Temperature 52 °F -  
Max Temperature 58 °F 69 °F 87 °F (1990)
Min Temperature 45 °F 47 °F 31 °F (1983)
Degree Days  
Heating Degree Days 14    
Growing Degree Days 2 (Base 50)    
Moisture  
Dew Point 24 °F    
Average Humidity 36    
Maximum Humidity 54    
Minimum Humidity 19    
Precipitation  
Precipitation 0.00 in - - ()
Sea Level Pressure  
Sea Level Pressure 30.38 in    
Wind  
Wind Speed 10 mph (NNE)    
Max Wind Speed 16 mph    
Max Gust Speed 24 mph    
Visibility 7 miles    
Events      
Averages and records for this station are not official NWS values.
T = Trace of Precipitation, MM = Missing Value Source: NWS Daily Summary

Daily Weather History Graph

Daily Weather History Graph

Search for Another Location

Airport or City:

Astronomy

Dec. 29, 2012 Rise Set
Actual Time 7:19 AM CST 5:50 PM CST
Civil Twilight 6:54 AM CST 6:15 PM CST
Nautical Twilight 6:25 AM CST 6:44 PM CST
Astronomical Twilight 5:57 AM CST 7:12 PM CST
Moon 7:14 PM CST (12/29) 8:02 AM CST (12/29)
Length of Visible Light 11h 20m
Length of Day
10h 30m
Full, 98% of the Moon is Illuminated
Dec 29
Full
Jan 4
Last Quarter
Jan 11
New
Jan 18
First Quarter
Jan 26
Full

Hourly Weather History & Observations

Time (CST) Temp. Windchill Dew Point Humidity Pressure Visibility Wind Dir Wind Speed Gust Speed Precip Events Conditions
12:15 AM 58.5 °F - 34.7 °F 41% 30.16 in 7.0 mi NE 11.5 mph - N/A   Clear
12:35 AM 58.1 °F - 30.7 °F 35% 30.18 in 7.0 mi NNE 13.8 mph - N/A   Clear
12:55 AM 57.4 °F - 28.4 °F 33% 30.18 in 7.0 mi NNE 11.5 mph - N/A   Clear
1:15 AM 56.3 °F - 28.2 °F 34% 30.19 in 7.0 mi NNE 11.5 mph 18.4 mph N/A   Clear
1:35 AM 55.2 °F - 28.0 °F 35% 30.20 in 7.0 mi NNE 9.2 mph - N/A   Clear
1:55 AM 54.0 °F - 28.2 °F 37% 30.20 in 10.0 mi North 10.4 mph - N/A   Clear
2:15 AM 53.1 °F - 28.9 °F 40% 30.22 in 7.0 mi North 10.4 mph - N/A   Clear
2:35 AM 52.7 °F - 30.2 °F 42% 30.23 in 7.0 mi North 10.4 mph 17.3 mph N/A   Clear
2:55 AM 51.8 °F - 32.0 °F 47% 30.25 in 7.0 mi NNE 10.4 mph - N/A   Clear
3:15 AM 51.3 °F - 33.3 °F 50% 30.25 in 7.0 mi NE 13.8 mph 18.4 mph N/A   Clear
3:35 AM 50.4 °F - 31.5 °F 48% 30.27 in 10.0 mi NNE 11.5 mph 17.3 mph N/A   Clear
3:55 AM 49.8 °F - 31.1 °F 49% 30.28 in 7.0 mi NNE 11.5 mph 19.6 mph N/A   Clear
4:15 AM 49.1 °F - 31.1 °F 50% 30.28 in 7.0 mi NNE 13.8 mph 17.3 mph N/A   Clear
4:35 AM 48.6 °F - 31.1 °F 51% 30.29 in 7.0 mi NNE 11.5 mph - N/A   Clear
4:55 AM 48.2 °F - 30.9 °F 51% 30.30 in 5.0 mi North 11.5 mph 18.4 mph N/A   Haze
5:15 AM 47.7 °F - 30.7 °F 52% 30.30 in 7.0 mi NNE 12.7 mph - N/A   Clear
5:35 AM 47.3 °F - 30.2 °F 52% 30.32 in 7.0 mi North 12.7 mph - N/A   Clear
5:55 AM 46.8 °F - 28.9 °F 50% 30.33 in 7.0 mi North 13.8 mph - N/A   Clear
6:15 AM 46.4 °F 40.4 °F 28.8 °F 50% 30.34 in 7.0 mi North 13.8 mph 20.7 mph N/A   Clear
6:35 AM 45.9 °F 40.4 °F 29.3 °F 52% 30.35 in 7.0 mi North 11.5 mph 18.4 mph N/A   Clear
6:55 AM 45.5 °F 39.6 °F 29.8 °F 54% 30.37 in 7.0 mi North 12.7 mph 18.4 mph N/A   Clear
7:15 AM 45.1 °F 39.5 °F 28.9 °F 53% 30.38 in 7.0 mi North 11.5 mph - N/A   Clear
7:35 AM 45.0 °F 39.3 °F 27.3 °F 50% 30.39 in 5.0 mi North 11.5 mph - N/A   Haze
7:55 AM 45.0 °F 39.3 °F 26.6 °F 49% 30.40 in 5.0 mi North 11.5 mph - N/A   Haze
8:15 AM 45.0 °F 38.5 °F 26.4 °F 48% 30.41 in 5.0 mi North 13.8 mph 19.6 mph N/A   Haze
8:35 AM 45.5 °F 39.6 °F 25.7 °F 46% 30.42 in 7.0 mi North 12.7 mph 17.3 mph N/A   Clear
8:55 AM 45.5 °F 38.9 °F 25.2 °F 45% 30.42 in 5.0 mi North 15.0 mph 20.7 mph N/A   Haze
9:15 AM 45.9 °F 39.4 °F 23.9 °F 42% 30.43 in 7.0 mi North 15.0 mph - N/A   Clear
9:35 AM 46.8 °F - 23.2 °F 40% 30.45 in 5.0 mi NNE 16.1 mph 24.2 mph N/A   Haze
9:55 AM 47.7 °F - 23.5 °F 39% 30.45 in 5.0 mi North 12.7 mph - N/A   Haze
10:15 AM 48.2 °F - 22.3 °F 36% 30.46 in 5.0 mi North 13.8 mph 19.6 mph N/A   Haze
10:35 AM 49.1 °F - 21.9 °F 34% 30.47 in 5.0 mi North 13.8 mph - N/A   Haze
10:55 AM 49.3 °F - 21.4 °F 33% 30.46 in 5.0 mi North 11.5 mph 19.6 mph N/A   Haze
11:15 AM 50.2 °F - 20.8 °F 32% 30.47 in 5.0 mi North 12.7 mph 16.1 mph N/A   Haze
11:35 AM 50.5 °F - 19.9 °F 30% 30.46 in 5.0 mi North 12.7 mph - N/A   Haze
11:55 AM 52.2 °F - 19.9 °F 28% 30.46 in 5.0 mi North 10.4 mph - N/A   Haze
12:15 PM 53.8 °F - 17.8 °F 24% 30.44 in 5.0 mi North 11.5 mph 17.3 mph N/A   Haze
12:35 PM 55.4 °F - 16.9 °F 22% 30.43 in 7.0 mi NNE 11.5 mph - N/A   Overcast
12:55 PM 56.3 °F - 16.2 °F 21% 30.42 in 5.0 mi North 13.8 mph - N/A   Haze
1:15 PM 56.5 °F - 16.3 °F 21% 30.41 in 7.0 mi NNE 10.4 mph - N/A   Scattered Clouds
1:35 PM 56.8 °F - 16.3 °F 20% 30.40 in 7.0 mi NNE 11.5 mph - N/A   Scattered Clouds
1:55 PM 57.4 °F - 16.5 °F 20% 30.40 in 7.0 mi North 12.7 mph - N/A   Scattered Clouds
2:15 PM 58.3 °F - 16.3 °F 19% 30.39 in 7.0 mi North 13.8 mph 19.6 mph N/A   Scattered Clouds
2:35 PM 58.1 °F - 16.7 °F 20% 30.40 in 5.0 mi North 9.2 mph - N/A   Haze
2:55 PM 58.1 °F - 16.5 °F 20% 30.39 in 7.0 mi North 10.4 mph 18.4 mph N/A   Clear
3:15 PM 57.7 °F - 17.2 °F 21% 30.39 in 7.0 mi NE 12.7 mph 16.1 mph N/A   Clear
3:35 PM 58.3 °F - 17.4 °F 20% 30.39 in 7.0 mi NNE 8.1 mph 17.3 mph N/A   Clear
3:55 PM 57.6 °F - 18.1 °F 22% 30.39 in 7.0 mi North 10.4 mph - N/A   Clear
4:15 PM 57.2 °F - 18.1 °F 22% 30.39 in 5.0 mi NNE 11.5 mph - N/A   Haze
4:35 PM 56.5 °F - 18.5 °F 23% 30.39 in 7.0 mi ENE 9.2 mph - N/A   Clear
4:55 PM 56.3 °F - 19.6 °F 24% 30.39 in 7.0 mi ENE 6.9 mph - N/A   Clear
5:15 PM 55.9 °F - 19.9 °F 25% 30.41 in 5.0 mi NE 4.6 mph - N/A   Haze
5:35 PM 55.8 °F - 19.6 °F 24% 30.41 in 5.0 mi NE 6.9 mph - N/A   Haze
5:55 PM 54.7 °F - 19.2 °F 25% 30.41 in 7.0 mi NNE 8.1 mph - N/A   Clear
6:15 PM 54.0 °F - 19.4 °F 26% 30.41 in 7.0 mi NNE 5.8 mph - N/A   Clear
6:35 PM 53.6 °F - 19.9 °F 27% 30.43 in 7.0 mi NNE 4.6 mph - N/A   Clear
7:15 PM 52.3 °F - 20.8 °F 29% 30.44 in 7.0 mi North 4.6 mph - N/A   Clear
7:35 PM 51.8 °F - 21.2 °F 30% 30.45 in 7.0 mi North 3.5 mph - N/A   Clear
7:55 PM 51.1 °F - 21.2 °F 31% 30.45 in 7.0 mi Calm Calm - N/A   Clear
8:15 PM 50.5 °F - 21.7 °F 32% 30.45 in 7.0 mi Calm Calm - N/A   Clear
8:35 PM 50.5 °F - 22.5 °F 33% 30.46 in 7.0 mi Calm Calm - N/A   Clear
8:55 PM 50.0 °F - 22.6 °F 34% 30.46 in 7.0 mi Calm Calm - N/A   Clear
9:15 PM 46.8 °F - 24.8 °F 42% 30.46 in 7.0 mi Calm Calm - N/A   Clear
9:35 PM 47.7 °F - 23.7 °F 39% 30.46 in 10.0 mi Calm Calm - N/A   Clear
9:55 PM 47.3 °F - 24.1 °F 40% 30.46 in 10.0 mi Calm Calm - N/A   Clear
10:15 PM 46.4 °F - 25.5 °F 44% 30.45 in 7.0 mi Calm Calm - N/A   Clear
10:35 PM 45.7 °F - 30.0 °F 54% 30.46 in 7.0 mi Calm Calm - N/A   Clear
10:55 PM 47.3 °F - 26.4 °F 44% 30.46 in 7.0 mi Calm Calm - N/A   Clear
11:15 PM 46.4 °F - 26.4 °F 46% 30.45 in 7.0 mi Calm Calm - N/A   Clear
11:35 PM 46.8 °F - 25.9 °F 44% 30.44 in 10.0 mi Calm Calm - N/A   Clear